Weather History for Port Clinton Carl R Keller Fi, OH

Change the Weather History Date:

Saturday, December 7, 2013

  Actual Average (KTOL) Record (KTOL)
Temperature  
Mean Temperature 26 °F 32 °F  
Max Temperature 29 °F 39 °F 62 °F (1951)
Min Temperature 24 °F 26 °F -2 °F (1885)
Degree Days  
Heating Degree Days 38 33  
Month to date heating degree days 221  
Since 1 July heating degree days 1454  
Cooling Degree Days 0 0  
Month to date cooling degree days 0  
Year to date cooling degree days 793  
Moisture  
Dew Point 15 °F    
Average Humidity 64    
Maximum Humidity 69    
Minimum Humidity 55    
Precipitation  
Precipitation 0.00 in 0.09 in 1.80 in (1966)
Month to date precipitation 0.64  
Year to date precipitation 32.20  
Snow  
Snow 0.00 in 0.20 in - ()
Month to date snowfall 1.2  
Since 1 July snowfall 3.3  
Snow Depth -    
Sea Level Pressure  
Sea Level Pressure 30.52 in    
Wind  
Wind Speed 10 mph (WNW)    
Max Wind Speed 15 mph    
Max Gust Speed -    
Visibility 10 miles    
Events      
T = Trace of Precipitation, MM = Missing Value Source: NWS Daily Summary

Daily Weather History Graph

Daily Weather History Graph

Search for Another Location

Airport:

Trip Planner

Search our weather history database for the weather conditions in past years. The results will help you decide how hot, cold, wet, or windy it might be!

Date:

Astronomy

Dec. 07, 2013 Rise Set
Actual Time 7:44 AM EST 5:01 PM EST
Civil Twilight 7:13 AM EST 5:32 PM EST
Nautical Twilight 6:38 AM EST 6:07 PM EST
Astronomical Twilight 6:05 AM EST 6:40 PM EST
Moon 11:26 AM EST (12/7) 10:44 PM EST (12/7)
Length of Visible Light 10h 19m
Length of Day
9h 16m
Waxing Crescent, 29% of the Moon is Illuminated
Dec 7
Waxing Crescent
Dec 9
First Quarter
Dec 17
Full
Dec 25
Last Quarter
Jan 1
New

Hourly Weather History & Observations

Time (EST) Temp. Windchill Dew Point Humidity Pressure Visibility Wind Dir Wind Speed Gust Speed Precip Events Conditions
12:13 AM 28.4 °F 19.1 °F 17.6 °F 64% 30.37 in 10.0 mi WNW 10.4 mph - N/A   Mostly Cloudy
12:34 AM 28.4 °F 20.4 °F 17.6 °F 64% 30.37 in 10.0 mi NW 8.1 mph - N/A   Scattered Clouds
12:53 AM 28.4 °F 18.5 °F 17.6 °F 64% 30.36 in 10.0 mi WNW 11.5 mph - N/A   Scattered Clouds
1:13 AM 26.6 °F 15.7 °F 17.6 °F 69% 30.37 in 10.0 mi NW 12.7 mph - N/A   Mostly Cloudy
1:34 AM 26.6 °F 15.7 °F 17.6 °F 69% 30.38 in 10.0 mi WNW 12.7 mph - N/A   Mostly Cloudy
1:53 AM 27.1 °F 16.9 °F 18.1 °F 69% 30.38 in 10.0 mi WNW 11.5 mph - N/A   Mostly Cloudy
2:13 AM 26.6 °F 15.7 °F 17.6 °F 69% 30.38 in 10.0 mi WNW 12.7 mph - N/A   Mostly Cloudy
2:34 AM 26.6 °F 15.7 °F 17.6 °F 69% 30.39 in 10.0 mi WNW 12.7 mph - N/A   Overcast
2:53 AM 26.6 °F 15.2 °F 15.8 °F 64% 30.41 in 10.0 mi WNW 13.8 mph - N/A   Overcast
3:13 AM 26.6 °F 15.7 °F 15.8 °F 64% 30.42 in 10.0 mi WNW 12.7 mph - N/A   Overcast
3:34 AM 26.6 °F 16.8 °F 15.8 °F 64% 30.42 in 10.0 mi WNW 10.4 mph - N/A   Overcast
3:53 AM 24.8 °F 12.4 °F 15.8 °F 69% 30.43 in 10.0 mi WNW 15.0 mph - N/A   Overcast
4:13 AM 24.8 °F 13.4 °F 15.8 °F 69% 30.44 in 10.0 mi NW 12.7 mph - N/A   Overcast
4:34 AM 24.8 °F 13.4 °F 14.0 °F 64% 30.45 in 10.0 mi WNW 12.7 mph - N/A   Overcast
4:36 AM 24.8 °F 12.4 °F 14.0 °F 64% 30.45 in 10.0 mi WNW 15.0 mph - N/A   Overcast
5:13 AM 24.8 °F 12.4 °F 14.0 °F 64% 30.45 in 10.0 mi WNW 15.0 mph - N/A   Mostly Cloudy
5:33 AM 24.8 °F 14.0 °F 14.0 °F 64% 30.46 in 10.0 mi NW 11.5 mph - N/A   Overcast
5:53 AM 25.2 °F 14.4 °F 14.0 °F 63% 30.47 in 10.0 mi NW 11.5 mph - N/A   Mostly Cloudy
6:13 AM 24.8 °F 14.0 °F 12.2 °F 59% 30.49 in 10.0 mi NW 11.5 mph - N/A   Mostly Cloudy
6:34 AM 24.8 °F 15.3 °F 12.2 °F 59% 30.49 in 10.0 mi NW 9.2 mph - N/A   Scattered Clouds
6:53 AM 24.8 °F 14.6 °F 14.0 °F 64% 30.49 in 10.0 mi NW 10.4 mph - N/A   Mostly Cloudy
7:14 AM 24.8 °F 12.4 °F 12.2 °F 59% 30.50 in 10.0 mi WNW 15.0 mph - N/A   Mostly Cloudy
7:33 AM 24.8 °F 15.3 °F 15.8 °F 69% 30.51 in 10.0 mi WNW 9.2 mph - N/A   Mostly Cloudy
7:53 AM 24.8 °F 15.3 °F 15.8 °F 69% 30.51 in 10.0 mi West 9.2 mph - N/A   Overcast
8:14 AM 24.8 °F 17.9 °F 15.8 °F 69% 30.52 in 10.0 mi WNW 5.8 mph - N/A   Overcast
8:34 AM 24.8 °F 14.0 °F 15.8 °F 69% 30.52 in 10.0 mi West 11.5 mph - N/A   Overcast
8:53 AM 24.1 °F 14.4 °F 15.1 °F 69% 30.53 in 10.0 mi West 9.2 mph - N/A   Overcast
9:10 AM 24.8 °F 14.6 °F 15.8 °F 69% 30.53 in 10.0 mi West 10.4 mph - N/A   Overcast
9:33 AM 24.8 °F 13.4 °F 15.8 °F 69% 30.54 in 10.0 mi West 12.7 mph - N/A   Overcast
9:53 AM 24.8 °F 16.9 °F 15.8 °F 69% 30.55 in 10.0 mi WNW 6.9 mph - N/A   Overcast
10:14 AM 24.8 °F 16.9 °F 14.0 °F 64% 30.57 in 10.0 mi WNW 6.9 mph - N/A   Overcast
10:34 AM 24.8 °F 15.3 °F 14.0 °F 64% 30.56 in 10.0 mi WNW 9.2 mph - N/A   Overcast
10:53 AM 25.2 °F 14.4 °F 14.0 °F 63% 30.56 in 10.0 mi NW 11.5 mph - N/A   Overcast
11:06 AM 26.6 °F 17.5 °F 15.8 °F 64% 30.56 in 10.0 mi WNW 9.2 mph - N/A   Overcast
11:35 AM 26.6 °F 17.5 °F 15.8 °F 64% 30.57 in 10.0 mi WNW 9.2 mph - N/A   Mostly Cloudy
11:54 AM 26.1 °F 16.2 °F 15.1 °F 63% 30.57 in 10.0 mi WNW 10.4 mph - N/A   Mostly Cloudy
12:14 PM 26.6 °F 17.5 °F 15.8 °F 64% 30.55 in 10.0 mi NW 9.2 mph - N/A   Scattered Clouds
12:17 PM 28.4 °F 20.4 °F 15.8 °F 59% 30.55 in 10.0 mi NW 8.1 mph - N/A   Scattered Clouds
12:53 PM 28.4 °F 20.4 °F 17.6 °F 64% 30.56 in 10.0 mi NW 8.1 mph - N/A   Scattered Clouds
1:14 PM 28.4 °F 19.1 °F 17.6 °F 64% 30.55 in 10.0 mi WNW 10.4 mph - N/A   Mostly Cloudy
1:34 PM 26.6 °F 18.2 °F 15.8 °F 64% 30.55 in 10.0 mi WNW 8.1 mph - N/A   Partly Cloudy
1:53 PM 29.1 °F 20.6 °F 17.1 °F 61% 30.54 in 10.0 mi WNW 9.2 mph - N/A   Clear
2:13 PM 28.4 °F 20.4 °F 15.8 °F 59% 30.54 in 10.0 mi NNW 8.1 mph - N/A   Clear
2:34 PM 28.4 °F 21.2 °F 15.8 °F 59% 30.54 in 10.0 mi Variable 6.9 mph - N/A   Clear
2:53 PM 28.0 °F 20.0 °F 15.1 °F 58% 30.53 in 10.0 mi NNW 8.1 mph - N/A   Clear
3:14 PM 28.4 °F 21.2 °F 15.8 °F 59% 30.52 in 10.0 mi NNW 6.9 mph - N/A   Clear
3:33 PM 28.4 °F 21.2 °F 15.8 °F 59% 30.53 in 10.0 mi WNW 6.9 mph - N/A   Clear
3:54 PM 27.1 °F 19.7 °F 14.0 °F 58% 30.54 in 10.0 mi Variable 6.9 mph - N/A   Clear
4:13 PM 26.6 °F 20.0 °F 14.0 °F 59% 30.55 in 10.0 mi Variable 5.8 mph - N/A   Clear
4:33 PM 26.6 °F 19.1 °F 14.0 °F 59% 30.54 in 10.0 mi WNW 6.9 mph - N/A   Clear
4:54 PM 27.1 °F 19.7 °F 14.0 °F 58% 30.55 in 10.0 mi Variable 6.9 mph - N/A   Clear
5:13 PM 26.6 °F 20.0 °F 14.0 °F 59% 30.56 in 10.0 mi WNW 5.8 mph - N/A   Partly Cloudy
5:33 PM 26.6 °F 20.0 °F 12.2 °F 55% 30.55 in 10.0 mi WNW 5.8 mph - N/A   Partly Cloudy
5:54 PM 26.1 °F 20.5 °F 13.1 °F 58% 30.55 in 10.0 mi West 4.6 mph - N/A   Clear
6:13 PM 26.6 °F 21.2 °F 12.2 °F 55% 30.56 in 10.0 mi WNW 4.6 mph - N/A   Clear
6:33 PM 24.8 °F 20.5 °F 12.2 °F 59% 30.57 in 10.0 mi West 3.5 mph - N/A   Clear
6:54 PM 25.2 °F 20.9 °F 13.1 °F 60% 30.56 in 10.0 mi WSW 3.5 mph - N/A   Clear
7:13 PM 24.8 °F 20.5 °F 12.2 °F 59% 30.55 in 10.0 mi WSW 3.5 mph - N/A   Clear
7:33 PM 24.8 °F 17.9 °F 14.0 °F 64% 30.58 in 10.0 mi WSW 5.8 mph - N/A   Mostly Cloudy
7:53 PM 24.1 °F 14.4 °F 14.0 °F 65% 30.59 in 10.0 mi WSW 9.2 mph - N/A   Mostly Cloudy
8:13 PM 24.8 °F 16.1 °F 12.2 °F 59% 30.58 in 10.0 mi WSW 8.1 mph - N/A   Scattered Clouds
8:33 PM 24.8 °F 16.9 °F 14.0 °F 64% 30.57 in 10.0 mi WSW 6.9 mph - N/A   Mostly Cloudy
8:53 PM 24.8 °F 15.3 °F 15.8 °F 69% 30.58 in 10.0 mi West 9.2 mph - N/A   Overcast
9:13 PM 24.8 °F 17.9 °F 15.8 °F 69% 30.59 in 10.0 mi WSW 5.8 mph - N/A   Overcast
9:33 PM 24.8 °F 17.9 °F 15.8 °F 69% 30.57 in 10.0 mi WSW 5.8 mph - N/A   Overcast
9:54 PM 24.8 °F 19.1 °F 15.8 °F 69% 30.57 in 10.0 mi West 4.6 mph - N/A   Overcast
10:13 PM 24.8 °F 19.1 °F 15.8 °F 69% 30.58 in 10.0 mi West 4.6 mph - N/A   Overcast
10:33 PM 24.8 °F 19.1 °F 15.8 °F 69% 30.59 in 10.0 mi West 4.6 mph - N/A   Mostly Cloudy
10:54 PM 25.2 °F - 15.1 °F 66% 30.58 in 10.0 mi Calm Calm - N/A   Mostly Cloudy
11:13 PM 24.8 °F 20.5 °F 15.8 °F 69% 30.57 in 10.0 mi NNW 3.5 mph - N/A   Mostly Cloudy
11:33 PM 26.6 °F 22.6 °F 14.0 °F 59% 30.58 in 10.0 mi NW 3.5 mph - N/A   Scattered Clouds
11:54 PM 24.1 °F 19.7 °F 13.1 °F 63% 30.58 in 10.0 mi Variable 3.5 mph - N/A   Mostly Cloudy